RYR149 LZIB-LKPR

Flight info

Callsign RYR149
Flight time 0h 40m
Altitude 14000
Route BERVA M748 TUTPI A4 ODNEM DCT TUMKA DCT VLM
Aircraft A320/M-SDE3FGHIRWY/LB1

Departure

Time 2026-05-05 17:18
Airport M. R. Štefánik Airport (LZIB)

Arrival

Time 2026-05-05 17:59
Airport Václav Havel Airport Prague (LKPR)
Time Latitude Longitude Altitude Speed Heading
2026-05-05 16:42 48.16763 17.19877 444 ft 0 kts 15°
2026-05-05 17:10 48.16762 17.19877 444 ft 1 kts 15°
2026-05-05 17:10 48.16746 17.19872 430 ft 3 kts 356°
2026-05-05 17:11 48.16727 17.19878 436 ft 3 kts 327°
2026-05-05 17:11 48.16711 17.19895 428 ft 3 kts 337°
2026-05-05 17:11 48.16703 17.19901 444 ft 1 kts 39°
2026-05-05 17:11 48.16702 17.19900 444 ft 0 kts 43°
2026-05-05 17:13 48.16708 17.19908 444 ft 2 kts 43°
2026-05-05 17:13 48.16746 17.19961 444 ft 12 kts 43°
2026-05-05 17:14 48.16875 17.20152 444 ft 39 kts 44°
2026-05-05 17:14 48.17074 17.20435 435 ft 40 kts 44°
2026-05-05 17:14 48.17176 17.20668 443 ft 11 kts 114°
2026-05-05 17:14 48.17088 17.20786 432 ft 24 kts 137°
2026-05-05 17:15 48.17113 17.20981 437 ft 23 kts 44°
2026-05-05 17:15 48.17223 17.21158 442 ft 23 kts 45°
2026-05-05 17:15 48.17344 17.21341 431 ft 25 kts 45°
2026-05-05 17:15 48.17471 17.21536 434 ft 27 kts 46°
2026-05-05 17:16 48.17585 17.21742 438 ft 23 kts 71°
2026-05-05 17:16 48.17545 17.21940 429 ft 9 kts 137°
2026-05-05 17:16 48.17535 17.21953 436 ft 2 kts 137°
2026-05-05 17:16 48.17512 17.21969 435 ft 8 kts 178°
2026-05-05 17:17 48.17471 17.21940 430 ft 1 kts 221°
2026-05-05 17:17 48.17454 17.21917 428 ft 21 kts 223°
2026-05-05 17:17 48.17178 17.21529 441 ft 85 kts 223°
2026-05-05 17:17 48.16617 17.20731 436 ft 133 kts 224°
2026-05-05 17:18 48.15864 17.19706 704 ft 152 kts 214°
2026-05-05 17:18 48.15058 17.18602 1216 ft 163 kts 219°
2026-05-05 17:18 48.14220 17.17384 1750 ft 174 kts 219°
2026-05-05 17:18 48.13329 17.16082 2264 ft 185 kts 219°
2026-05-05 17:19 48.12223 17.15046 2768 ft 194 kts 190°
2026-05-05 17:19 48.10867 17.15468 3264 ft 217 kts 153°
2026-05-05 17:19 48.09641 17.16992 3783 ft 242 kts 141°
2026-05-05 17:19 48.08541 17.18815 4256 ft 220 kts 137°
2026-05-05 17:20 48.07690 17.20638 4754 ft 219 kts 120°
2026-05-05 17:20 48.07441 17.22942 5253 ft 236 kts 88°
2026-05-05 17:20 48.08107 17.25249 5761 ft 251 kts 50°
2026-05-05 17:20 48.09560 17.26619 6261 ft 254 kts 11°
2026-05-05 17:21 48.11294 17.26546 6608 ft 249 kts 333°
2026-05-05 17:21 48.12860 17.25451 6816 ft 250 kts 336°
2026-05-05 17:21 48.14521 17.24667 7087 ft 251 kts 336°
2026-05-05 17:22 48.18018 17.23917 7679 ft 273 kts 10°
2026-05-05 17:22 48.19871 17.24950 7983 ft 297 kts 34°
2026-05-05 17:22 48.21557 17.26856 8290 ft 309 kts 39°
2026-05-05 17:22 48.23249 17.28865 8590 ft 311 kts 40°
2026-05-05 17:23 48.24937 17.30869 8890 ft 310 kts 39°
2026-05-05 17:23 48.26640 17.32884 9198 ft 314 kts 39°
2026-05-05 17:23 48.28356 17.34908 9501 ft 313 kts 39°
2026-05-05 17:23 48.30102 17.36857 9801 ft 314 kts 33°
2026-05-05 17:24 48.31994 17.38553 10085 ft 319 kts 31°
2026-05-05 17:24 48.33888 17.40243 10363 ft 316 kts 31°
2026-05-05 17:24 48.35773 17.41934 10638 ft 317 kts 31°
2026-05-05 17:24 48.37674 17.43646 10928 ft 321 kts 31°
2026-05-05 17:25 48.39586 17.45368 11225 ft 319 kts 31°
2026-05-05 17:25 48.40843 17.46498 11416 ft 320 kts 31°
2026-05-05 17:25 48.43451 17.48710 11825 ft 323 kts 24°
2026-05-05 17:25 48.45556 17.49894 12122 ft 323 kts 15°
2026-05-05 17:26 48.47748 17.50592 12427 ft 322 kts
2026-05-05 17:26 48.49976 17.51147 12740 ft 327 kts
2026-05-05 17:26 48.52213 17.51712 13054 ft 328 kts
2026-05-05 17:26 48.54512 17.52287 13372 ft 342 kts
2026-05-05 17:27 48.56930 17.52502 13684 ft 354 kts 355°
2026-05-05 17:27 48.59433 17.52084 13777 ft 372 kts 345°
2026-05-05 17:27 48.61936 17.50960 13814 ft 389 kts 336°
2026-05-05 17:27 48.64403 17.49074 13811 ft 406 kts 324°
2026-05-05 17:28 48.66642 17.46444 13810 ft 409 kts 313°
2026-05-05 17:28 48.68626 17.43349 13809 ft 410 kts 311°
2026-05-05 17:28 48.70600 17.40221 13811 ft 410 kts 311°
2026-05-05 17:28 48.72565 17.37094 13811 ft 410 kts 310°
2026-05-05 17:29 48.74532 17.33964 13812 ft 410 kts 311°
2026-05-05 17:29 48.76504 17.30830 13799 ft 411 kts 310°
2026-05-05 17:29 48.78476 17.27693 13800 ft 411 kts 310°
2026-05-05 17:29 48.80453 17.24552 13799 ft 411 kts 310°
2026-05-05 17:30 48.82425 17.21415 13800 ft 411 kts 310°
2026-05-05 17:30 48.84393 17.18279 13792 ft 411 kts 309°
2026-05-05 17:30 48.86189 17.14941 13791 ft 407 kts 301°
2026-05-05 17:30 48.87820 17.11415 13796 ft 407 kts 301°
2026-05-05 17:31 48.89446 17.07909 13799 ft 407 kts 301°
2026-05-05 17:31 48.91085 17.04378 13794 ft 407 kts 301°
2026-05-05 17:31 48.92718 17.00861 13796 ft 407 kts 301°
2026-05-05 17:31 48.94348 16.97340 13802 ft 407 kts 302°
2026-05-05 17:32 48.95954 16.93857 13800 ft 407 kts 302°
2026-05-05 17:32 48.97590 16.90295 13798 ft 407 kts 303°
2026-05-05 17:32 48.99220 16.86749 13801 ft 407 kts 303°
2026-05-05 17:32 49.00841 16.83214 13804 ft 407 kts 303°
2026-05-05 17:33 49.02463 16.79682 13800 ft 407 kts 302°
2026-05-05 17:33 49.04065 16.76187 13804 ft 406 kts 303°
2026-05-05 17:33 49.05676 16.72656 13801 ft 406 kts 302°
2026-05-05 17:33 49.07293 16.69121 13802 ft 406 kts 302°
2026-05-05 17:34 49.08907 16.65593 13806 ft 406 kts 303°
2026-05-05 17:34 49.10000 16.63198 13804 ft 406 kts 302°
2026-05-05 17:34 49.11613 16.59662 13803 ft 406 kts 302°
2026-05-05 17:34 49.13201 16.56165 13811 ft 406 kts 303°
2026-05-05 17:35 49.14805 16.52628 13806 ft 405 kts 303°
2026-05-05 17:35 49.16412 16.49083 13802 ft 406 kts 303°
2026-05-05 17:35 49.18013 16.45548 13794 ft 405 kts 303°
2026-05-05 17:35 49.19623 16.41984 13789 ft 406 kts 303°
2026-05-05 17:36 49.21225 16.38438 13786 ft 406 kts 303°
2026-05-05 17:36 49.22825 16.34888 13767 ft 406 kts 303°
2026-05-05 17:36 49.24426 16.31333 13757 ft 406 kts 303°
2026-05-05 17:36 49.26037 16.27761 13758 ft 406 kts 302°
2026-05-05 17:37 49.27637 16.24208 13768 ft 406 kts 303°
2026-05-05 17:37 49.29237 16.20644 13765 ft 406 kts 303°
2026-05-05 17:37 49.30830 16.17088 13759 ft 406 kts 303°
2026-05-05 17:37 49.32427 16.13522 13758 ft 406 kts 302°
2026-05-05 17:38 49.34020 16.09951 13757 ft 406 kts 302°
2026-05-05 17:38 49.35617 16.06366 13756 ft 406 kts 302°
2026-05-05 17:38 49.37212 16.02784 13748 ft 406 kts 303°
2026-05-05 17:38 49.38802 15.99210 13746 ft 406 kts 303°
2026-05-05 17:39 49.40396 15.95620 13754 ft 406 kts 302°
2026-05-05 17:39 49.41782 15.91860 13753 ft 405 kts 295°
2026-05-05 17:39 49.43089 15.88032 13749 ft 405 kts 296°
2026-05-05 17:39 49.44397 15.84197 13749 ft 405 kts 296°
2026-05-05 17:40 49.45704 15.80361 13758 ft 405 kts 296°
2026-05-05 17:40 49.47011 15.76518 13758 ft 405 kts 296°
2026-05-05 17:40 49.48293 15.72739 13755 ft 404 kts 296°
2026-05-05 17:40 49.49597 15.68898 13755 ft 404 kts 296°
2026-05-05 17:41 49.50898 15.65068 13754 ft 404 kts 296°
2026-05-05 17:41 49.52199 15.61226 13752 ft 404 kts 296°
2026-05-05 17:41 49.53490 15.57403 13742 ft 399 kts 296°
2026-05-05 17:41 49.54741 15.53699 13670 ft 382 kts 296°
2026-05-05 17:42 49.55943 15.50141 13495 ft 367 kts 296°
2026-05-05 17:42 49.57103 15.46699 13001 ft 360 kts 296°
2026-05-05 17:42 49.58250 15.43285 12723 ft 354 kts 295°
2026-05-05 17:42 49.59390 15.39876 12741 ft 360 kts 295°
2026-05-05 17:43 49.60537 15.36439 12741 ft 361 kts 295°
2026-05-05 17:43 49.61687 15.32987 12739 ft 362 kts 295°
2026-05-05 17:43 49.62837 15.29539 12738 ft 362 kts 295°
2026-05-05 17:43 49.63990 15.26087 12743 ft 362 kts 295°
2026-05-05 17:44 49.65143 15.22630 12744 ft 362 kts 295°
2026-05-05 17:44 49.66293 15.19175 12740 ft 362 kts 295°
2026-05-05 17:44 49.67442 15.15712 12743 ft 362 kts 295°
2026-05-05 17:44 49.68587 15.12255 12743 ft 362 kts 295°
2026-05-05 17:45 49.69805 15.08845 12737 ft 363 kts 301°
2026-05-05 17:45 49.71341 15.05803 12739 ft 365 kts 312°
2026-05-05 17:45 49.73092 15.02957 12745 ft 366 kts 311°
2026-05-05 17:45 49.74825 15.00086 12743 ft 366 kts 311°
2026-05-05 17:46 49.76549 14.97204 12741 ft 366 kts 311°
2026-05-05 17:46 49.78280 14.94310 12741 ft 366 kts 311°
2026-05-05 17:46 49.80007 14.91429 12642 ft 366 kts 311°
2026-05-05 17:46 49.81739 14.88548 12126 ft 363 kts 311°
2026-05-05 17:47 49.83453 14.85698 11602 ft 360 kts 311°
2026-05-05 17:47 49.85150 14.82874 11117 ft 356 kts 311°
2026-05-05 17:47 49.86831 14.80075 10625 ft 353 kts 311°
2026-05-05 17:47 49.88500 14.77298 10143 ft 351 kts 311°
2026-05-05 17:48 49.90154 14.74542 9663 ft 348 kts 311°
2026-05-05 17:48 49.91794 14.71802 9156 ft 345 kts 311°
2026-05-05 17:48 49.93418 14.69080 8680 ft 342 kts 311°
2026-05-05 17:48 49.95034 14.66370 8175 ft 341 kts 311°
2026-05-05 17:49 49.96640 14.63678 7678 ft 339 kts 311°
2026-05-05 17:49 49.98239 14.60994 7192 ft 338 kts 312°
2026-05-05 17:49 49.99832 14.58318 6700 ft 336 kts 312°
2026-05-05 17:49 50.01425 14.55644 6230 ft 335 kts 313°
2026-05-05 17:50 50.03004 14.52987 5719 ft 334 kts 313°
2026-05-05 17:50 50.04575 14.50334 5225 ft 333 kts 313°
2026-05-05 17:50 50.06105 14.47746 5028 ft 324 kts 313°
2026-05-05 17:50 50.07593 14.45230 5025 ft 307 kts 313°
2026-05-05 17:51 50.09003 14.42846 5030 ft 290 kts 313°
2026-05-05 17:51 50.10352 14.40567 5033 ft 284 kts 313°
2026-05-05 17:51 50.11683 14.38314 5004 ft 281 kts 313°
2026-05-05 17:51 50.13002 14.36079 5005 ft 280 kts 313°
2026-05-05 17:52 50.14328 14.33834 5006 ft 282 kts 313°
2026-05-05 17:52 50.15667 14.31567 5005 ft 285 kts 314°
2026-05-05 17:52 50.17007 14.29293 5005 ft 284 kts 314°
2026-05-05 17:52 50.18326 14.27047 5006 ft 286 kts 313°
2026-05-05 17:53 50.19669 14.24757 5003 ft 286 kts 313°
2026-05-05 17:53 50.21015 14.22462 4994 ft 286 kts 314°
2026-05-05 17:53 50.22357 14.20169 4996 ft 285 kts 313°
2026-05-05 17:53 50.23688 14.17900 4992 ft 283 kts 313°
2026-05-05 17:54 50.25020 14.15632 4993 ft 283 kts 313°
2026-05-05 17:54 50.26055 14.13056 4987 ft 277 kts 286°
2026-05-05 17:54 50.26154 14.10157 4909 ft 264 kts 255°
2026-05-05 17:54 50.25378 14.07645 4591 ft 257 kts 227°
2026-05-05 17:55 50.24012 14.05957 4344 ft 245 kts 201°
2026-05-05 17:55 50.22428 14.05306 4270 ft 232 kts 179°
2026-05-05 17:55 50.20858 14.05608 4123 ft 226 kts 158°
2026-05-05 17:55 50.19492 14.06762 3911 ft 222 kts 135°
2026-05-05 17:56 50.18482 14.08550 3649 ft 219 kts 122°
2026-05-05 17:56 50.17570 14.10459 3367 ft 220 kts 122°
2026-05-05 17:56 50.16666 14.12346 3088 ft 220 kts 123°
2026-05-05 17:56 50.15747 14.14260 2787 ft 220 kts 123°
2026-05-05 17:57 50.14821 14.16185 2511 ft 219 kts 122°
2026-05-05 17:57 50.13926 14.18044 2216 ft 210 kts 122°
2026-05-05 17:57 50.13089 14.19777 1965 ft 191 kts 122°
2026-05-05 17:57 50.12331 14.21350 1728 ft 170 kts 122°
2026-05-05 17:58 50.11671 14.22719 1478 ft 146 kts 124°
2026-05-05 17:58 50.11080 14.23947 1314 ft 137 kts 125°
2026-05-05 17:58 50.10517 14.25120 1189 ft 134 kts 125°
2026-05-05 17:58 50.10049 14.26113 1195 ft 89 kts 126°
2026-05-05 17:59 50.09773 14.26663 1210 ft 42 kts 127°
2026-05-05 17:59 50.09609 14.27007 1215 ft 38 kts 126°
2026-05-05 17:59 50.09457 14.27322 1222 ft 21 kts 126°
2026-05-05 17:59 50.09466 14.27472 1225 ft 14 kts 46°
2026-05-05 18:00 50.09549 14.27570 1225 ft 16 kts 36°
2026-05-05 18:00 50.09657 14.27604 1223 ft 18 kts 333°
2026-05-05 18:00 50.09757 14.27463 1220 ft 21 kts 314°
2026-05-05 18:00 50.09866 14.27285 1216 ft 24 kts 310°
2026-05-05 18:01 50.09975 14.27064 1212 ft 27 kts 306°
2026-05-05 18:01 50.10097 14.26811 1207 ft 31 kts 307°
2026-05-05 18:01 50.10233 14.26530 1201 ft 34 kts 307°
2026-05-05 18:01 50.10384 14.26222 1195 ft 37 kts 307°
2026-05-05 18:02 50.10499 14.25996 1190 ft 15 kts 331°
2026-05-05 18:02 50.10526 14.26017 1188 ft 0 kts 83°
2026-05-05 18:02 50.10527 14.26022 1188 ft 0 kts 83°
2026-05-05 18:05 50.10539 14.26081 1188 ft 11 kts 65°
2026-05-05 18:05 50.10541 14.26086 1188 ft 0 kts 62°
2026-05-05 18:05 50.10545 14.26096 1188 ft 6 kts 54°
2026-05-05 18:05 50.10587 14.26091 1186 ft 8 kts 317°
2026-05-05 18:06 50.10650 14.26087 1183 ft 12 kts 33°
2026-05-05 18:06 50.10701 14.26144 1176 ft 15 kts 34°
2026-05-05 18:06 50.10761 14.26118 1179 ft 9 kts 269°
2026-05-05 18:06 50.10780 14.26000 1176 ft 15 kts 283°
2026-05-05 18:07 50.10740 14.25935 1179 ft 8 kts 212°
2026-05-05 18:07 50.10633 14.25819 1183 ft 6 kts 214°
2026-05-05 18:07 50.10620 14.25807 1184 ft 9 kts 207°
2026-05-05 18:07 50.10544 14.25884 1187 ft 21 kts 126°
2026-05-05 18:08 50.10451 14.26081 1192 ft 0 kts 126°
2026-05-05 18:08 50.09684 14.28630 1229 ft 0 kts 185°